Weather History for New York, NY

Change the Weather History Date:

Friday, January 18, 2013

  Actual Average Record
Temperature  
Mean Temperature 31 °F 33 °F  
Max Temperature 36 °F 39 °F 64 °F (1973)
Min Temperature 26 °F 26 °F 0 °F (1982)
Degree Days  
Heating Degree Days 34 32  
Month to date heating degree days 464 572  
Since 1 July heating degree days 1916 2178  
Cooling Degree Days 0 0  
Month to date cooling degree days 0 0  
Year to date cooling degree days 0 0  
Moisture  
Dew Point 9 °F    
Average Humidity 44    
Maximum Humidity 59    
Minimum Humidity 28    
Precipitation  
Precipitation T in 0.10 in 1.12 in (2011)
Month to date precipitation 1.38 1.88  
Year to date precipitation 1.38 1.88  
Snow  
Snow T in 0.20 in 3.00 in (1984)
Month to date snowfall 0.1 4.3  
Since 1 July snowfall 2.1 9.8  
Snow Depth 0.00 in    
Sea Level Pressure  
Sea Level Pressure 30.34 in    
Wind  
Wind Speed 12 mph (NW)    
Max Wind Speed 20 mph    
Max Gust Speed 25 mph    
Visibility 10 miles    
Events Snow    
T = Trace of Precipitation, MM = Missing Value Source: NWS Daily Summary

Daily Weather History Graph

Daily Weather History Graph

Search for Another Location

Airport:

Trip Planner

Search our weather history database for the weather conditions in past years. The results will help you decide how hot, cold, wet, or windy it might be!

Date:

Astronomy

Jan. 18, 2013 Rise Set
Actual Time 7:16 AM EST 4:56 PM EST
Civil Twilight 6:46 AM EST 5:26 PM EST
Nautical Twilight 6:12 AM EST 5:59 PM EST
Astronomical Twilight 5:39 AM EST 6:32 PM EST
Moon 10:50 AM EST (1/18) No Moon Set
Length of Visible Light 10h 40m
Length of Day
9h 40m
Waxing Crescent, 47% of the Moon is Illuminated
Jan 18
Waxing Crescent
Jan 18
First Quarter
Jan 26
Full
Feb 3
Last Quarter
Feb 10
New

Hourly Weather History & Observations

Time (EST) Temp. Windchill Dew Point Humidity Pressure Visibility Wind Dir Wind Speed Gust Speed Precip Events Conditions
12:51 AM 35.1 °F 26.9 °F 21.9 °F 59% 30.02 in 10.0 mi NE 11.5 mph - N/A   Overcast
1:51 AM 33.1 °F 24.9 °F 19.0 °F 56% 30.08 in 10.0 mi North 10.4 mph - N/A   Overcast
2:51 AM 32.0 °F 24.2 °F 16.0 °F 52% 30.10 in 10.0 mi NNE 9.2 mph - N/A   Overcast
3:51 AM 30.0 °F 23.2 °F 16.0 °F 56% 30.10 in 9.0 mi NNW 6.9 mph - 0.00 in Snow Light Snow
4:51 AM 30.0 °F 22.4 °F 15.1 °F 54% 30.14 in 10.0 mi North 8.1 mph 18.4 mph 0.00 in   Mostly Cloudy
5:51 AM 28.9 °F 18.2 °F 14.0 °F 54% 30.19 in 10.0 mi North 13.8 mph - N/A   Overcast
6:51 AM 28.0 °F 17.0 °F 12.9 °F 53% 30.25 in 10.0 mi North 13.8 mph - N/A   Mostly Cloudy
7:51 AM 26.1 °F 15.0 °F 12.9 °F 58% 30.31 in 10.0 mi North 12.7 mph - N/A   Mostly Cloudy
8:51 AM 26.1 °F 16.2 °F 10.9 °F 53% 30.35 in 10.0 mi North 10.4 mph - N/A   Partly Cloudy
9:51 AM 26.1 °F 14.5 °F 10.9 °F 53% 30.42 in 10.0 mi North 13.8 mph 19.6 mph N/A   Partly Cloudy
10:51 AM 27.0 °F 14.7 °F 9.0 °F 47% 30.43 in 10.0 mi NNW 16.1 mph 25.3 mph N/A   Mostly Cloudy
11:51 AM 28.0 °F 17.0 °F 5.0 °F 38% 30.42 in 10.0 mi NNW 13.8 mph 18.4 mph N/A   Scattered Clouds
12:24 PM 28.4 °F 17.0 °F 6.8 °F 40% 30.42 in 10.0 mi WNW 15.0 mph 21.9 mph N/A   Scattered Clouds
12:51 PM 28.9 °F 17.7 °F 6.1 °F 38% 30.42 in 10.0 mi NW 15.0 mph 20.7 mph N/A   Partly Cloudy
1:51 PM 30.0 °F 18.7 °F 7.0 °F 38% 30.43 in 10.0 mi NW 16.1 mph 24.2 mph N/A   Partly Cloudy
2:51 PM 30.0 °F 20.0 °F 3.9 °F 33% 30.43 in 10.0 mi NW 12.7 mph - N/A   Partly Cloudy
3:51 PM 30.0 °F 19.5 °F 1.9 °F 30% 30.44 in 10.0 mi NW 13.8 mph 19.6 mph N/A   Clear
4:51 PM 28.9 °F 21.1 °F 3.0 °F 33% 30.45 in 10.0 mi NNW 8.1 mph - N/A   Partly Cloudy
5:51 PM 30.0 °F 21.1 °F 1.0 °F 29% 30.48 in 10.0 mi West 10.4 mph 17.3 mph N/A   Partly Cloudy
6:51 PM 30.0 °F 20.0 °F 1.9 °F 30% 30.48 in 10.0 mi SSW 12.7 mph 16.1 mph N/A   Partly Cloudy
7:51 PM 30.0 °F 21.1 °F 3.0 °F 32% 30.48 in 10.0 mi SSW 10.4 mph - N/A   Partly Cloudy
8:51 PM 30.0 °F 22.4 °F 3.9 °F 33% 30.46 in 10.0 mi SSW 8.1 mph 17.3 mph N/A   Partly Cloudy
9:51 PM 30.0 °F 21.7 °F 7.0 °F 38% 30.47 in 10.0 mi SSW 9.2 mph - N/A   Partly Cloudy
10:51 PM 30.0 °F 21.1 °F 9.0 °F 41% 30.44 in 10.0 mi SW 10.4 mph - N/A   Clear
11:51 PM 30.9 °F 22.8 °F 9.0 °F 40% 30.41 in 10.0 mi SSW 9.2 mph - N/A   Clear